TIANWANG 1B (TW-1B)
1 40927U 15051C   19072.52328137  .00008371  00000-0  13994-3 0  9992
2 40927  97.1522 118.4448 0009768  35.8588  93.5853 15.52107743194931
TIANWANG 1A (TW-1A)
1 40928U 15051D   19072.52036191  .00002754  00000-0  70552-4 0  9992
2 40928  97.1567 105.9538 0013238  70.2387  69.4937 15.40141173194217
LAPAN A2
1 40931U 15052B   19072.01898745  .00000690  00000-0  70164-5 0  9999
2 40931   6.0009  33.0093 0013513 215.3425 144.5806 14.76599784186808
LQSAT
1 40958U 15057A   19072.42923431  .00000005  00000-0  84266-5 0  9997
2 40958  97.9087 144.2056 0017607 188.9236 171.1660 14.73069136184485
CHUBUSAT 2
1 41338U 16012B   19072.01268988  .00000330  00000-0  18946-4 0  9998
2 41338  31.0038  45.5106 0013890 215.6951 144.2756 15.00105333168237
CHUBUSAT 3
1 41339U 16012C   19072.32635386  .00000338  00000-0  19509-4 0  9997
2 41339  31.0106  41.7372 0013641 226.2461 133.7042 15.00284314168277
OUFTI-1
1 41458U 16025C   19072.49336885  .00001342  00000-0  73003-4 0  9998
2 41458  98.1052 154.4138 0166575 324.2225  34.7916 15.05477982157950
E-STAR-2
1 41459U 16025D   19072.42105368  .00001016  00000-0  56749-4 0  9998
2 41459  98.1048 154.0559 0167669 325.6149  33.4309 15.05145460157915
AAUSAT 4
1 41460U 16025E   19072.44732338  .00000523  00000-0  30996-4 0  9993
2 41460  98.0982 155.0922 0158428 319.1102  39.8328 15.06881526158023
NUSAT 1
1 41557U 16033B   19072.54058012  .00001188  00000-0  47657-4 0  9990
2 41557  97.4201 160.6218 0012325 282.4219  77.5640 15.26937666155261
BEESAT 4
1 41619U 16040W   19071.68359915  .00000998  00000-0  45584-4 0  9992
2 41619  97.3797 135.6889 0011699  16.8601 343.3022 15.22836006138948
PRATHAM
1 41783U 16059A   19072.34288134  .00000016  00000-0  12419-4 0  9994
2 41783  98.0803 134.0135 0032809 332.1265  27.8178 14.62976960131316
ALSAT 1N
1 41789U 16059G   19072.41439627  .00000054  00000-0  19347-4 0  9992
2 41789  98.0826 135.8680 0027431 323.0670  36.8647 14.64221507131419
NAYIF 1
1 42017U 17008BX  19072.41304354  .00001369  00000-0  57345-4 0  9990
2 42017  97.4139 140.4753 0007355 141.2618 218.9149 15.25215638115094
LILACSAT-1
1 42725U 98067ME  19072.44852144  .00320284  57493-4  46269-3 0  9992
2 42725  51.6291  43.0059 0005052 121.6962 330.9345 16.04763898103098
MAX VALIER SAT
1 42778U 17036P   19072.48331905  .00000794  00000-0  37977-4 0  9994
2 42778  97.3672 132.2371 0011999 198.0655 162.0157 15.21810423 95458
